Terug naar catalogus

FENGYUN 1C DEB

ActiefSSO
NORAD 38116·DEBRIS·🇨🇳 China

Gelanceerd May 10, 1999 vanaf Taiyuan Satellite Launch Center

Loading…

Volgende Passages (komende 24 uur)

TLE

VersSource: Space-Track

Epoch: Sep 14, 2026, 08:41 UTC

1 38116U 99025EPM 26257.36223590  .00000351  00000-0  18937-3 0  9996
2 38116  98.6863 295.2093 0072009  76.9100 349.6647 14.17487217683897

Volg FENGYUN 1C DEB in realtime met AllMySat

Download on the App Store